Time,TemperatureF,DewpointF,PressureIn,WindDirection,WindDirectionDegrees,WindSpeedMPH,WindSpeedGustMPH,Humidity,HourlyPrecipIn,Conditions,Clouds,dailyrainin,SoftwareType,DateUTC
2013-01-07 00:03:00,23.7,23.0,29.95,SSW,192,0.0,0.0,95,0.00,,,0.00,weatherlink.com 1.10,2013-01-07 05:03:00,
2013-01-07 00:18:00,23.8,23.0,29.95,SSW,194,0.0,1.0,95,0.00,,,0.00,weatherlink.com 1.10,2013-01-07 05:18:00,
2013-01-07 00:33:00,24.0,23.0,29.95,West,279,0.0,2.0,95,0.00,,,0.00,weatherlink.com 1.10,2013-01-07 05:33:00,
2013-01-07 00:48:00,24.0,23.0,29.96,West,279,0.0,2.0,95,0.00,,,0.00,weatherlink.com 1.10,2013-01-07 05:48:00,
2013-01-07 01:04:00,24.0,23.0,29.96,West,279,0.0,0.0,95,0.00,,,0.00,weatherlink.com 1.10,2013-01-07 06:04:00,
2013-01-07 01:19:00,23.9,23.0,29.97,NW,313,0.0,3.0,95,0.00,,,0.00,weatherlink.com 1.10,2013-01-07 06:19:00,
2013-01-07 01:34:00,23.8,23.0,29.98,NNW,342,0.0,2.0,95,0.00,,,0.00,weatherlink.com 1.10,2013-01-07 06:34:00,
2013-01-07 01:49:00,23.5,22.0,29.99,NNE,12,2.0,4.0,95,0.00,,,0.00,weatherlink.com 1.10,2013-01-07 06:49:00,
2013-01-07 02:04:00,22.7,21.0,29.99,NNE,23,5.0,9.0,94,0.00,,,0.00,weatherlink.com 1.10,2013-01-07 07:04:00,
2013-01-07 02:19:00,22.0,21.0,30.00,NE,36,5.0,8.0,94,0.00,,,0.00,weatherlink.com 1.10,2013-01-07 07:19:00,
2013-01-07 02:34:00,21.8,20.0,30.01,NNE,12,6.0,7.0,94,0.00,,,0.00,weatherlink.com 1.10,2013-01-07 07:34:00,
2013-01-07 02:49:00,21.4,20.0,30.02,North,11,6.0,7.0,94,0.00,,,0.00,weatherlink.com 1.10,2013-01-07 07:49:00,
2013-01-07 03:04:00,21.1,20.0,30.02,NNE,26,4.0,6.0,94,0.00,,,0.00,weatherlink.com 1.10,2013-01-07 08:04:00,
2013-01-07 03:19:00,20.7,19.0,30.03,NNE,29,9.0,10.0,94,0.00,,,0.00,weatherlink.com 1.10,2013-01-07 08:19:00,
2013-01-07 03:34:00,19.2,18.0,30.04,NE,47,3.0,7.0,93,0.00,,,0.00,weatherlink.com 1.10,2013-01-07 08:34:00,
2013-01-07 03:49:00,17.8,16.0,30.04,NE,40,5.0,8.0,92,0.00,,,0.00,weatherlink.com 1.10,2013-01-07 08:49:00,
2013-01-07 04:05:00,16.7,15.0,30.05,NE,43,2.0,6.0,92,0.00,,,0.00,weatherlink.com 1.10,2013-01-07 09:05:00,
2013-01-07 04:20:00,15.9,14.0,30.06,NNE,33,4.0,6.0,92,0.00,,,0.00,weatherlink.com 1.10,2013-01-07 09:20:00,
2013-01-07 04:35:00,15.2,13.0,30.07,NNE,28,4.0,5.0,92,0.00,,,0.00,weatherlink.com 1.10,2013-01-07 09:35:00,
2013-01-07 04:50:00,14.5,13.0,30.09,NE,37,3.0,7.0,92,0.00,,,0.00,weatherlink.com 1.10,2013-01-07 09:50:00,
2013-01-07 05:05:00,13.8,12.0,30.10,NNE,26,7.0,9.0,92,0.00,,,0.00,weatherlink.com 1.10,2013-01-07 10:05:00,
2013-01-07 05:20:00,13.1,11.0,30.12,NE,36,2.0,8.0,91,0.00,,,0.00,weatherlink.com 1.10,2013-01-07 10:20:00,
2013-01-07 05:35:00,12.4,10.0,30.12,North,355,3.0,6.0,91,0.00,,,0.00,weatherlink.com 1.10,2013-01-07 10:35:00,
2013-01-07 05:50:00,11.9,10.0,30.13,NNE,17,6.0,8.0,91,0.00,,,0.00,weatherlink.com 1.10,2013-01-07 10:50:00,
2013-01-07 06:05:00,11.6,10.0,30.14,North,5,4.0,8.0,91,0.00,,,0.00,weatherlink.com 1.10,2013-01-07 11:05:00,
2013-01-07 06:21:00,11.2,9.0,30.15,North,355,2.0,8.0,91,0.00,,,0.00,weatherlink.com 1.10,2013-01-07 11:21:00,
2013-01-07 06:36:00,10.9,9.0,30.15,North,5,2.0,6.0,91,0.00,,,0.00,weatherlink.com 1.10,2013-01-07 11:36:00,
2013-01-07 06:51:00,10.8,9.0,30.16,NNE,15,2.0,4.0,91,0.00,,,0.00,weatherlink.com 1.10,2013-01-07 11:51:00,
2013-01-07 07:06:00,10.6,9.0,30.17,North,5,2.0,6.0,91,0.00,,,0.00,weatherlink.com 1.10,2013-01-07 12:06:00,
2013-01-07 07:21:00,10.4,8.0,30.19,NNE,12,1.0,5.0,91,0.00,,,0.00,weatherlink.com 1.10,2013-01-07 12:21:00,
2013-01-07 07:36:00,10.3,8.0,30.20,NNE,19,3.0,5.0,91,0.00,,,0.00,weatherlink.com 1.10,2013-01-07 12:36:00,
2013-01-07 07:51:00,10.0,8.0,30.21,NNE,17,3.0,7.0,91,0.00,,,0.00,weatherlink.com 1.10,2013-01-07 12:51:00,
2013-01-07 08:06:00,9.8,8.0,30.23,NNE,13,5.0,7.0,90,0.00,,,0.00,weatherlink.com 1.10,2013-01-07 13:06:00,
2013-01-07 08:21:00,9.6,7.0,30.23,NNE,23,4.0,6.0,90,0.00,,,0.00,weatherlink.com 1.10,2013-01-07 13:21:00,
2013-01-07 08:36:00,9.6,7.0,30.25,North,10,4.0,6.0,90,0.00,,,0.00,weatherlink.com 1.10,2013-01-07 13:36:00,
2013-01-07 08:51:00,9.6,8.0,30.26,NNE,29,3.0,6.0,91,0.00,,,0.00,weatherlink.com 1.10,2013-01-07 13:51:00,
2013-01-07 09:07:00,9.7,7.0,30.27,NNE,28,1.0,6.0,90,0.00,,,0.00,weatherlink.com 1.10,2013-01-07 14:07:00,
2013-01-07 09:22:00,10.0,8.0,30.27,NE,46,0.0,4.0,90,0.00,,,0.00,weatherlink.com 1.10,2013-01-07 14:22:00,
2013-01-07 09:37:00,10.5,8.0,30.27,North,355,2.0,5.0,91,0.00,,,0.00,weatherlink.com 1.10,2013-01-07 14:37:00,
2013-01-07 09:52:00,10.8,9.0,30.28,North,360,3.0,7.0,91,0.00,,,0.00,weatherlink.com 1.10,2013-01-07 14:52:00,
2013-01-07 10:07:00,10.8,9.0,30.29,NNW,340,3.0,7.0,90,0.00,,,0.00,weatherlink.com 1.10,2013-01-07 15:07:00,
2013-01-07 10:22:00,10.5,8.0,30.29,NNE,12,6.0,9.0,90,0.00,,,0.00,weatherlink.com 1.10,2013-01-07 15:22:00,
2013-01-07 10:37:00,9.9,8.0,30.29,North,350,2.0,8.0,90,0.00,,,0.00,weatherlink.com 1.10,2013-01-07 15:37:00,
2013-01-07 10:52:00,9.9,8.0,30.29,North,11,5.0,8.0,90,0.00,,,0.00,weatherlink.com 1.10,2013-01-07 15:52:00,
2013-01-07 11:07:00,10.3,8.0,30.30,NNE,32,3.0,8.0,90,0.00,,,0.00,weatherlink.com 1.10,2013-01-07 16:07:00,
2013-01-07 11:22:00,10.7,8.0,30.30,North,11,3.0,8.0,90,0.00,,,0.00,weatherlink.com 1.10,2013-01-07 16:22:00,
2013-01-07 11:37:00,10.6,8.0,30.30,NNW,333,2.0,12.0,90,0.00,,,0.00,weatherlink.com 1.10,2013-01-07 16:37:00,
2013-01-07 11:52:00,10.7,8.0,30.30,North,5,0.0,7.0,90,0.00,,,0.00,weatherlink.com 1.10,2013-01-07 16:52:00,
2013-01-07 12:07:00,11.2,9.0,30.30,North,360,2.0,9.0,90,0.00,,,0.00,weatherlink.com 1.10,2013-01-07 17:07:00,
2013-01-07 12:22:00,11.6,9.0,30.30,NNE,13,6.0,8.0,90,0.00,,,0.00,weatherlink.com 1.10,2013-01-07 17:22:00,
2013-01-07 12:37:00,11.7,9.0,30.31,North,355,4.0,9.0,90,0.00,,,0.00,weatherlink.com 1.10,2013-01-07 17:37:00,
2013-01-07 12:52:00,11.7,9.0,30.30,North,5,4.0,8.0,90,0.00,,,0.00,weatherlink.com 1.10,2013-01-07 17:52:00,
2013-01-07 13:07:00,11.7,9.0,30.31,North,355,4.0,9.0,89,0.00,,,0.00,weatherlink.com 1.10,2013-01-07 18:07:00,
2013-01-07 13:22:00,11.5,9.0,30.30,NNW,346,2.0,8.0,89,0.00,,,0.00,weatherlink.com 1.10,2013-01-07 18:22:00,
2013-01-07 13:37:00,11.7,9.0,30.32,NNW,338,6.0,9.0,90,0.00,,,0.00,weatherlink.com 1.10,2013-01-07 18:37:00,
2013-01-07 13:52:00,11.7,9.0,30.32,NW,321,2.0,8.0,89,0.00,,,0.00,weatherlink.com 1.10,2013-01-07 18:52:00,
2013-01-07 14:07:00,11.7,9.0,30.33,North,5,6.0,7.0,89,0.00,,,0.00,weatherlink.com 1.10,2013-01-07 19:07:00,
2013-01-07 14:22:00,11.4,9.0,30.32,NW,314,2.0,9.0,90,0.00,,,0.00,weatherlink.com 1.10,2013-01-07 19:22:00,
2013-01-07 14:37:00,11.3,9.0,30.32,NNW,329,0.0,4.0,89,0.00,,,0.00,weatherlink.com 1.10,2013-01-07 19:37:00,
2013-01-07 14:52:00,11.1,9.0,30.33,NNW,327,0.0,4.0,90,0.00,,,0.00,weatherlink.com 1.10,2013-01-07 19:52:00,
2013-01-07 15:07:00,11.1,9.0,30.33,NNE,26,0.0,5.0,90,0.00,,,0.00,weatherlink.com 1.10,2013-01-07 20:07:00,
2013-01-07 15:22:00,11.0,9.0,30.34,NNE,17,0.0,3.0,90,0.00,,,0.00,weatherlink.com 1.10,2013-01-07 20:22:00,
2013-01-07 15:37:00,10.8,9.0,30.34,NNE,26,2.0,3.0,90,0.00,,,0.00,weatherlink.com 1.10,2013-01-07 20:37:00,
2013-01-07 15:52:00,10.6,8.0,30.35,NNE,21,0.0,2.0,90,0.00,,,0.00,weatherlink.com 1.10,2013-01-07 20:52:00,
2013-01-07 16:07:00,10.3,8.0,30.35,NNE,16,0.0,0.0,90,0.00,,,0.00,weatherlink.com 1.10,2013-01-07 21:07:00,
2013-01-07 16:22:00,9.8,8.0,30.35,NNE,16,0.0,0.0,90,0.00,,,0.00,weatherlink.com 1.10,2013-01-07 21:22:00,
2013-01-07 16:37:00,9.3,7.0,30.35,NNE,16,0.0,1.0,90,0.00,,,0.00,weatherlink.com 1.10,2013-01-07 21:37:00,
2013-01-07 16:53:00,8.7,6.0,30.36,NNE,16,0.0,1.0,90,0.00,,,0.00,weatherlink.com 1.10,2013-01-07 21:53:00,
2013-01-07 17:08:00,7.9,5.0,30.36,NNE,16,0.0,0.0,88,0.00,,,0.00,weatherlink.com 1.10,2013-01-07 22:08:00,
2013-01-07 17:23:00,6.9,4.0,30.35,West,279,1.0,3.0,89,0.00,,,0.00,weatherlink.com 1.10,2013-01-07 22:23:00,
2013-01-07 17:38:00,6.3,4.0,30.35,West,279,1.0,2.0,89,0.00,,,0.00,weatherlink.com 1.10,2013-01-07 22:38:00,
2013-01-07 17:53:00,5.7,3.0,30.36,West,279,0.0,0.0,88,0.00,,,0.00,weatherlink.com 1.10,2013-01-07 22:53:00,
2013-01-07 18:08:00,4.9,2.0,30.36,West,279,2.0,2.0,88,0.00,,,0.00,weatherlink.com 1.10,2013-01-07 23:08:00,
2013-01-07 18:23:00,4.3,2.0,30.35,West,279,0.0,1.0,88,0.00,,,0.00,weatherlink.com 1.10,2013-01-07 23:23:00,
2013-01-07 18:38:00,3.7,1.0,30.35,West,279,0.0,1.0,88,0.00,,,0.00,weatherlink.com 1.10,2013-01-07 23:38:00,
2013-01-07 18:53:00,3.4,1.0,30.35,West,279,0.0,1.0,89,0.00,,,0.00,weatherlink.com 1.10,2013-01-07 23:53:00,
2013-01-07 19:08:00,3.0,0.0,30.34,West,279,0.0,0.0,88,0.00,,,0.00,weatherlink.com 1.10,2013-01-08 00:08:00,
2013-01-07 19:23:00,2.6,0.0,30.34,SSW,209,2.0,4.0,89,0.00,,,0.00,weatherlink.com 1.10,2013-01-08 00:23:00,
2013-01-07 19:38:00,4.3,2.0,30.33,SSW,200,4.0,5.0,90,0.00,,,0.00,weatherlink.com 1.10,2013-01-08 00:38:00,
2013-01-07 19:53:00,6.5,5.0,30.32,SSW,206,2.0,6.0,91,0.00,,,0.00,weatherlink.com 1.10,2013-01-08 00:53:00,
2013-01-07 20:09:00,7.9,6.0,30.31,South,190,5.0,7.0,91,0.00,,,0.00,weatherlink.com 1.10,2013-01-08 01:09:00,
2013-01-07 20:24:00,8.3,6.0,30.31,South,185,5.0,7.0,90,0.00,,,0.00,weatherlink.com 1.10,2013-01-08 01:24:00,
2013-01-07 20:39:00,8.6,6.0,30.30,SW,220,3.0,8.0,90,0.00,,,0.00,weatherlink.com 1.10,2013-01-08 01:39:00,
2013-01-07 20:54:00,9.2,7.0,30.30,South,175,4.0,7.0,90,0.00,,,0.00,weatherlink.com 1.10,2013-01-08 01:54:00,
2013-01-07 21:09:00,9.8,8.0,30.30,SSW,213,2.0,7.0,90,0.00,,,0.00,weatherlink.com 1.10,2013-01-08 02:09:00,
2013-01-07 21:24:00,10.5,8.0,30.29,SW,234,2.0,5.0,91,0.00,,,0.00,weatherlink.com 1.10,2013-01-08 02:24:00,
2013-01-07 21:39:00,11.2,9.0,30.29,SSW,204,5.0,7.0,90,0.00,,,0.00,weatherlink.com 1.10,2013-01-08 02:39:00,
2013-01-07 21:55:00,11.4,9.0,30.29,SSW,199,4.0,7.0,90,0.00,,,0.00,weatherlink.com 1.10,2013-01-08 02:55:00,
2013-01-07 22:10:00,11.3,9.0,30.29,SSW,196,4.0,8.0,90,0.00,,,0.00,weatherlink.com 1.10,2013-01-08 03:10:00,
2013-01-07 22:25:00,12.1,10.0,30.29,South,188,6.0,8.0,91,0.00,,,0.00,weatherlink.com 1.10,2013-01-08 03:25:00,
2013-01-07 22:40:00,12.6,11.0,30.28,South,185,5.0,7.0,91,0.00,,,0.00,weatherlink.com 1.10,2013-01-08 03:40:00,
2013-01-07 22:55:00,13.4,11.0,30.28,SSW,196,2.0,6.0,91,0.00,,,0.00,weatherlink.com 1.10,2013-01-08 03:55:00,
2013-01-07 23:10:00,13.8,12.0,30.27,WSW,242,0.0,5.0,91,0.00,,,0.00,weatherlink.com 1.10,2013-01-08 04:10:00,
2013-01-07 23:25:00,14.8,12.0,30.27,SSE,153,1.0,10.0,90,0.00,,,0.00,weatherlink.com 1.10,2013-01-08 04:25:00,
2013-01-07 23:41:00,16.0,14.0,30.26,South,177,3.0,10.0,90,0.00,,,0.00,weatherlink.com 1.10,2013-01-08 04:41:00,
2013-01-07 23:56:00,16.8,14.0,30.26,West,272,4.0,12.0,89,0.00,,,0.00,weatherlink.com 1.10,2013-01-08 04:56:00,